Location: Buisson
(44.2787°N, 4.9969°E)
Time: 07:21:08
(UTC+00:00)

Cosmos 2278 Rocket - Pass Details

Date: 18 April 2021
Orbit: 842 x 844 km, 71.0° (Epoch: 06 May)

Event Time Altitude Azimuth Distance (km) Brightness Sun altitude
Exits shadow 03:54:38 - 277° (W) 2,680 4.3 -10.3°
Reaches altitude 10° 03:55:39 10° 286° (WNW) 2,467 4.2 -10.1°
Maximum altitude 03:58:40 14° 318° (NW) 2,166 4.2 -9.6°
Drops below altitude 10° 04:01:42 10° 351° (N) 2,472 4.8 -9.1°
Sets 04:05:25 0° 15° (NNE) 3,411 6.0 -8.5°
